IQUEBE275 Weather Reports


time (UTC)temp
C
wind
direction
speed
KPH
gust
KPH
rain 1hr
cm
rain 24hr
cm
rain mn
cm
humidity
%
barometer
mb
20260506024005 11 259 1.6 0.0 0.00 0.00 0.71 36 1001.9
20260506023507 11 262 0.0 0.0 0.00 0.00 0.71 36 1001.7
20260506023012 11 261 0.0 0.0 0.00 0.00 0.71 37 1001.7
20260506022542 11 261 0.0 0.0 0.00 0.00 0.71 38 1001.7
20260506022044 11 261 0.0 0.0 0.00 0.00 0.71 39 1001.6
20260506021513 11 262 0.0 0.0 0.00 0.00 0.71 39 1001.6
20260506021018 11 262 0.0 0.0 0.00 0.00 0.71 40 1001.6
20260506015005 11 262 0.0 0.0 0.00 0.00 0.71 44 1001.5
20260506014504 11 262 0.0 0.0 0.00 0.00 0.71 45 1001.3
20260506014045 11 262 1.6 0.0 0.00 0.00 0.71 46 1001.6
20260506013512 11 262 1.6 0.0 0.00 0.00 0.71 46 1001.7
20260506013018 11 261 1.6 0.0 0.00 0.00 0.71 47 1001.8
20260506012515 12 261 3.2 0.0 0.00 0.00 0.71 47 1001.5
20260506012049 12 265 3.2 0.0 0.00 0.00 0.71 47 1001.4
20260506011605 12 274 3.2 0.0 0.00 0.00 0.71 47 1001.3
20260506011052 12 291 3.2 0.0 0.00 0.00 0.69 46 1001.1
20260506010556 12 278 3.2 0.0 0.00 0.00 0.69 45 1001.0
20260506010058 12 257 4.8 0.0 0.00 0.00 0.69 44 1001.1
20260506005601 12 269 3.2 0.0 0.00 0.00 0.69 43 1001.1
20260506005104 12 311 1.6 0.0 0.00 0.00 0.69 41 1001.0
20260506004602 12 313 1.6 0.0 0.00 0.00 0.66 40 1000.7
20260506004106 12 313 1.6 0.0 0.00 0.00 0.66 40 1000.5
20260506003606 12 313 3.2 0.0 0.00 0.00 0.66 39 1000.4
20260506002608 12 305 1.6 0.0 0.00 0.00 0.66 38 1000.2
20260506002110 12 257 0.0 0.0 0.00 0.00 0.66 38 1000.2
20260506001613 12 257 1.6 0.0 0.00 0.00 0.66 38 1000.2
20260506001114 12 257 1.6 0.0 0.00 0.00 0.66 38 1000.2
20260506000620 13 260 1.6 0.0 0.00 0.00 0.66 38 1000.1
20260505235004 13 238 3.2 0.0 0.00 0.00 0.66 41 999.9
20260505234544 13 256 3.2 0.0 0.00 0.00 0.64 42 999.9
20260505234047 13 256 3.2 0.0 0.00 0.00 0.64 42 999.9
20260505233551 13 261 3.2 0.0 0.00 0.00 0.61 43 999.9
20260505233056 13 259 3.2 0.0 0.00 0.00 0.58 44 999.8
20260505232604 13 258 3.2 0.0 0.00 0.00 0.56 45 999.6
20260505232110 13 279 3.2 0.0 0.00 0.00 0.56 45 999.6
20260505230009 13 253 4.8 0.0 0.00 0.00 0.56 47 999.1
20260505225512 13 254 4.8 0.0 0.00 0.00 0.56 47 999.2
20260505225052 13 256 3.2 0.0 0.00 0.00 0.56 47 999.0
20260505224558 14 254 4.8 0.0 0.00 0.00 0.56 48 998.6
20260505224110 14 254 4.8 0.0 0.00 0.00 0.56 48 998.6
20260505222004 14 253 4.8 0.0 0.00 0.00 0.53 51 998.2
20260505221512 14 252 3.2 0.0 0.00 0.00 0.53 52 998.1
20260505221017 14 314 3.2 0.0 0.00 0.00 0.53 51 997.8
20260505220600 14 330 6.4 0.0 0.00 0.00 0.53 51 997.6
20260505220112 14 56 8.0 0.0 0.00 0.00 0.53 50 997.7
20260505212504 16 355 14.5 0.0 0.00 0.00 0.53 58 997.2
20260505212007 16 326 12.9 0.0 0.00 0.00 0.53 61 997.2
20260505211508 17 311 14.5 0.0 0.00 0.00 0.53 62 997.0
20260505211010 17 323 14.5 0.0 0.00 0.00 0.53 64 996.8
20260505210518 18 304 16.1 0.0 0.00 0.00 0.51 65 996.8
20260505210052 19 291 19.3 0.0 0.00 0.00 0.51 65 996.4
20260505205518 20 271 17.7 0.0 0.00 0.00 0.51 64 996.2
20260505205014 20 292 17.7 0.0 0.00 0.00 0.51 65 995.1
20260505204504 20 245 19.3 0.0 0.00 0.00 0.51 65 995.2
20260505202612 20 236 16.1 0.0 0.00 0.00 0.51 65 995.4
20260505202103 20 261 16.1 0.0 0.00 0.00 0.51 65 995.7
20260505201550 20 229 14.5 0.0 0.00 0.00 0.51 65 995.5
20260505201017 20 261 12.9 0.0 0.00 0.00 0.51 65 995.6
20260505200556 20 260 12.9 0.0 0.00 0.00 0.51 65 995.7
20260505200005 20 278 11.3 0.0 0.00 0.00 0.51 64 995.6
20260505195106 20 272 11.3 0.0 0.00 0.00 0.48 63 995.9
20260505194613 20 258 9.7 0.0 0.00 0.00 0.48 63 996.0
20260505194102 20 242 9.7 0.0 0.00 0.00 0.48 62 996.3
20260505193600 20 257 11.3 0.0 0.00 0.00 0.48 62 996.2
20260505193015 19 228 11.3 0.0 0.00 0.00 0.48 58 996.3
20260505192514 18 286 8.0 0.0 0.00 0.00 0.48 56 996.3
20260505192013 18 252 6.4 0.0 0.00 0.00 0.48 53 996.5
20260505191512 17 229 4.8 0.0 0.00 0.00 0.48 50 996.6
20260505191049 17 198 3.2 0.0 0.00 0.00 0.48 48 996.7
20260505190545 16 221 4.8 0.0 0.00 0.00 0.48 47 996.8
20260505190006 16 226 8.0 0.0 0.00 0.00 0.48 41 996.9
20260505185506 16 240 4.8 0.0 0.00 0.00 0.48 35 996.9
20260505185005 16 186 1.6 0.0 0.00 0.00 0.48 33 997.0
20260505184502 15 186 1.6 0.0 0.00 0.00 0.48 32 997.1
20260505184007 15 186 1.6 0.0 0.00 0.00 0.48 32 997.0
20260505183504 15 314 1.6 0.0 0.00 0.00 0.48 32 997.1
20260505183008 15 315 1.6 0.0 0.00 0.00 0.48 33 997.2
20260505182547 14 315 1.6 0.0 0.00 0.00 0.48 33 997.3
20260505182056 15 315 0.0 0.0 0.00 0.00 0.48 32 997.4
20260505181602 14 315 0.0 0.0 0.00 0.00 0.48 32 997.5
20260505175004 13 315 0.0 0.0 0.00 0.00 0.48 35 997.6
20260505174506 13 315 0.0 0.0 0.00 0.00 0.48 36 997.8
20260505174005 13 315 0.0 0.0 0.00 0.00 0.48 37 997.9
20260505173512 13 315 0.0 0.0 0.00 0.00 0.46 38 998.0
20260505173021 13 315 0.0 0.0 0.00 0.00 0.41 39 997.9
20260505172513 13 315 0.0 0.0 0.00 0.00 0.38 39 997.7
20260505172016 13 321 1.6 0.0 0.00 0.00 0.33 40 997.8
20260505171556 13 321 3.2 0.0 0.00 0.00 0.33 41 997.7
20260505171058 13 320 3.2 0.0 0.00 0.00 0.33 43 997.8
20260505170601 13 314 3.2 0.0 0.00 0.00 0.33 44 998.0
20260505170105 13 325 1.6 0.0 0.00 0.00 0.33 46 997.8
20260505165601 13 325 1.6 0.0 0.00 0.00 0.28 49 998.0
20260505165102 14 291 3.2 0.0 0.00 0.00 0.28 51 998.0
20260505164606 14 265 4.8 0.0 0.00 0.00 0.28 54 998.0
20260505163009 16 277 12.9 0.0 0.00 0.00 0.15 64 998.3
20260505162508 16 262 11.3 0.0 0.00 0.00 0.00 65 998.3
20260505162012 16 276 9.7 0.0 0.00 0.00 0.00 65 998.2
20260505161511 17 275 11.3 0.0 0.00 0.00 0.00 66 998.2
20260505161014 17 245 12.9 0.0 0.00 0.00 0.00 66 998.3
20260505160544 17 233 12.9 0.0 0.00 0.00 0.00 66 998.4
20260505153116 19 219 9.7 0.0 0.00 0.00 0.00 63 998.2
20260505152601 19 276 8.0 0.0 0.00 0.00 0.00 60 998.1
20260505140503 15 112 1.6 0.0 0.00 0.00 0.00 63 998.9
20260505123514 11 112 0.0 0.0 0.00 0.00 0.00 67 999.4
20260505123019 11 111 0.0 0.0 0.00 0.00 0.00 67 999.5
20260505122602 11 112 0.0 0.0 0.00 0.00 0.00 67 999.5
20260505120542 10 111 1.6 0.0 0.00 0.00 0.00 66 999.8
20260505120053 10 111 1.6 0.0 0.00 0.00 0.00 65 999.9
20260505115605 10 44 0.0 0.0 0.00 0.00 0.00 64 999.9
20260505115108 10 44 0.0 0.0 0.00 0.00 0.00 62 999.9
20260505114006 8 44 0.0 0.0 0.00 0.00 0.00 55 999.9
20260505113515 8 44 0.0 0.0 0.00 0.00 0.00 54 999.9
20260505113100 7 44 0.0 0.0 0.00 0.00 0.00 53 999.9
20260505111549 6 44 0.0 0.0 0.00 0.00 0.00 46 1000.1
20260505111049 6 44 0.0 0.0 0.00 0.00 0.00 46 1000.1
20260505110558 5 44 0.0 0.0 0.00 0.00 0.00 46 1000.0
20260505110110 5 44 0.0 0.0 0.00 0.00 0.00 45 1000.1